SCP
0 0 0 0 0 0 0 0 0 0 0 0 0 0 0 0 0 0 0 0 0 0 0 0 0 0 0 0 0 0 0 0 0 0 0 0 0 0 0 0 0 0 0 0 0 0 0 0 0 0 -0 -0 -0 -0
0 0 0 0 0 0 0 0 0 0 0 0 0 0 0 0 0 0 0 0 0 0 0 0 0 0 0 0 0 0 0 0 0 0 0 0 0 0 0 0 0 0 0 0 0 0 0 0 0 0 0 0 0 0
0 0 0 0 0 0 0 0 0 0 0 0 0 0 0 0 0 0 0 0 0 0 0 0 0 0 0 0 0 0 0 0 0 0 0 0 0 0 0 0 0 0 0 0 0 0 0 0 0 0 0 0 0 0
0 0 0 0 0 0 0 0 0 0 0 0 0 0 0 0 0 0 0 0 0 0 0 0 0 0 0 0 0 0 0 0 0 0 0 0 0 0 0 0 0 0 0 0 0 0 0 0 -0 0 0 0 -0 0
0 0 0 0 0 0 0 0 0 0 0 0 0 0 0 0 0 0 0 0 0 0 0 0 0 0 0 0 0 0 0 0 0 0 0 0 0 0 0 0 -0 0 -0 0 -0 0 -0 -0 0 0 0 0 0 0
0 0 0 -0 -0 -0 0 0 0 0 0 0 0 0 0 0 0 0 0 0 0 0 0 0 0 0 0 0 0 0 0 0 0 0 0 0 0 0 0 -0 -0 -0 0 0 0 0 -0 -0 0 0 0 0 0 0
-0 -0 0 0 0 0 0 0 0 0 0 0 0 0 0 0 0 0 0 0 0 0 0 0 0 0 0 0 0 0 0 0 0 0 0 0 0 0 0 0 0 0 0 0 -0 -0 -0 -0 0 0 0 0 0 0
0 0 0 0 0 0 0 0 0 0 0 0 0 0 0 0 0 0 0 -0 0 0 0 0 0 0 0 0 0 0 0 0 0 0 0 0 0 0 0 -0 0 0 0 0 0 0 0 0 0 0 0 0 0 0
0 0 0 0 0 0 0 0 0 0 0 0 0 0 0 0 0 0 0 0 0 0 0 0 0 0 0 0 0 0 0 0 0 0 0 0 0 0 0 0 0 0 0 0 0 0 0 0 0 0 0 0 0 0
0 0 0 0 0 0 0 0 0 0 0 0 0 0 0 0 -0 -0 0 0 0 0 0 0 0 0 0 0 0 0 0 0 0 0 0 0 0 0 0 0 0 0 0 0 0 0 0 0 0 0 -0 -0 0 0
0 0 0 0 0 0 0 0 0 0 0 0 0 0 0 0 0 0 0 0 0 0 0 0 0 0 0 0 0 0 0 0 0 0 0 0 0 0 0 0 0 0 0 0 0 0 0 0 0 0 0 -0 0 0
0 0 0 0 0 0 0 0 0 0 0 0 0 0 0 0 0 0 0 0 0 0 0 0 0 0 0 0 0 0 0 0 0 0 0 -0 0 -0 -0 0 0 0 0 0 0 0 0 0 0 0 0 0 -0 0
-0 -0 -0 -0 -0 -0 -0 -0 0 0 0 0 0 0 0 0 -0 0 0 0 0 0 -0 -0 -0 0 0 0 0 0 0 0 0 0 0 0 0 -0 0 0 0 0 0 0 0 0 0 0 0 0 0 -0 0 0
-0 -0 -0 -0 0 0 -0 -0 0 0 0 0 0 0 -0 -0 -0 -0 -0 0 -0 -0 -0 -0 0 0 0 0 0 -0 -0 -0 -0 0 -0 -0 0 -0 0 0 0 0 0 0 0 0 0 0 0 0 0 0 -0 0
0 0 0 0 0 0 0 -0 -0 0 0 0 0 0 -0 -0 0 0 -0 0 0 -0 -0 -0 0 0 -0 -0 -0 -0 -0 -0 -0 -0 -0 -0 0 0 0 0 0 0 0 0 0 0 0 0 0 0 0 0 0 0
-0 0 0 -0 0 -0 -0 0 0 0 -0 0 0 0 0 0 0 0 0 -0 -0 0 0 0 -0 -0 0 -0 -0 -0 -0 -0 -0 -0 -0 -0 0 -0 0 0 0 0 0 0 0 0 0 0 0 0 -0 0 0 0
-0 0 0 0 -0 -0 0 0 -0 -0 -0 0 0 0 0 0 -0 -0 -0 -0 -0 0 -0 -0 -0 0 -0 -0 -0 -0 0 -0 -0 -0 -0 -0 0 0 0 0 0 0 0 0 0 0 0 0 0 0 0 0 0 0
-0 -0 -0 -0 -0 -0 0 -0 -0 -0 0 0 0 0 0 0 0 -0 -0 -0 -0 -0 0 -0 0 0 0 0 0 0 -0 -0 -0 -0 0 0 -0 0 0 0 0 0 0 0 0 0 0 0 0 0 0 0 0 0
-0 -0 -0 -0 0 -0 0 -0 -0 0 0 0 0 0 0 0 0 -0 -0 -0 -0 0 0 0 0 0 0 0 -0 -0 0 0 0 -0 0 0 0 0 0 0 0 0 0 0 0 0 0 0 0 0 0 0 0 0
-0 -0 -0 -0 -0 -0 0 0 -0 0 0 0 0 0 0 0 0 0 0 -0 -0 -0 0 0 0 0 0 0 -0 -0 0 0 0 0 0 0 0 0 0 0 0 0 0 0 0 0 0 0 0 0 -0 0 0 0
0 -0 -0 -0 -0 0 0 0 0 0 0 0 0 0 0 0 0 -0 -0 0 0 0 0 0 -0 -0 -0 0 0 0 -0 -0 0 0 0 0 0 0 0 0 0 0 0 0 0 0 0 0 0 0 0 0 0 0
0 -0 -0 0 0 0 0 0 0 0 0 0 0 0 0 -0 0 0 0 0 0 0 0 -0 -0 -0 -0 -0 -0 0 0 -0 0 0 -0 0 0 0 0 0 0 0 0 0 0 0 0 0 0 0 0 0 0 0
0 0 0 0 0 0 0 0 0 0 0 0 0 0 0 0 0 0 0 0 0 0 0 0 0 -0 -0 -0 -0 0 -0 0 -0 0 0 -0 0 0 0 0 0 0 0 0 0 0 0 0 0 0 0 0 0 0
0 0 0 0 0 0 0 0 0 0 0 0 0 0 0 0 0 0 0 0 0 0 0 0 0 0 0 -0 -0 0 0 0 0 0 0 0 0 0 0 0 0 0 0 0 0 0 0 0 0 0 0 0 0 0
0 0 0 0 0 0 0 0 0 0 0 0 0 0 0 0 0 0 0 0 0 0 0 -0 0 0 0 -0 0 0 0 0 0 0 0 0 0 0 0 0 0 0 0 0 0 0 0 0 0 0 0 0 0 0
0 0 0 0 0 0 0 0 0 0 0 0 0 0 0 0 0 0 0 0 0 0 0 0 0 0 0 0 0 0 0 0 0 0 0 0 0 0 0 0 0 0 0 0 0 0 0 0 0 0 0 0 0 0
0 0 0 0 0 0 0 0 0 0 0 0 0 0 0 0 0 0 0 0 0 0 0 0 0 0 0 0 0 0 0 0 0 0 0 0 0 0 0 0 0 0 0 0 0 0 0 0 0 0 0 0 0 0
0 0 0 0 0 0 0 0 0 0 0 0 0 0 0 0 0 0 0 0 0 0 0 0 0 0 0 0 0 0 0 0 0 0 0 0 0 0 0 0 0 0 0 0 0 0 0 0 0 0 0 0 0 0
0 0 0 0 0 0 0 0 0 0 0 0 0 0 0 0 0 0 0 0 0 0 0 0 0 0 0 0 0 0 0 0 0 0 0 0 0 0 0 0 0 0 0 0 0 0 0 0 0 0 0 0 0 0
0 0 0 0 -0 0 0 0 0 0 0 0 0 0 0 0 0 0 0 0 0 0 0 0 0 0 0 0 0 0 0 0 0 0 0 0 0 0 0 0 0 0 0 0 0 0 0 0 0 0 0 0 0 0
0 0 0 0 -0 0 0 0 0 0 0 0 0 0 0 0 0 0 0 0 0 0 0 0 0 0 0 0 0 0 0 0 0 0 0 0 0 0 0 0 0 0 0 0 0 0 0 0 0 0 0 0 0 0
0 0 0 0 -0 -0 -0 -0 0 0 0 -0 0 0 0 0 0 0 0 0 0 0 -0 -0 0 0 0 0 0 0 0 0 0 0 0 0 0 0 0 0 0 0 0 0 0 0 0 0 0 0 0 0 0 -0
0 0 0 0 0 0 0 0 -0 0 0 0 0 0 0 0 0 0 0 0 0 0 0 0 0 0 0 0 0 0 0 0 0 0 0 0 0 0 0 0 0 0 0 0 0 0 0 0 -0 0 0 0 0 -0
Wind_Speed_500mb
47 44 38 33 37 30 26 25 23 23 22 18 14 13 14 13 12 7 9 11 9 11 39 43 28 15 11 8 6 12 17 5 9 7 3 6 4 6 6 8 8 5 4 7 7 8 13 7 8 4 10 21 28 33
45 32 31 28 22 23 23 20 21 22 20 18 15 14 14 15 13 14 9 15 21 21 31 43 47 44 60 66 43 11 8 6 8 3 3 6 6 7 2 7 3 5 8 6 10 9 6 21 14 30 40 47 41 40
26 24 23 21 23 26 20 15 23 19 17 18 17 14 14 15 14 17 22 16 20 21 44 34 14 7 16 16 31 22 17 17 12 20 9 6 9 3 6 6 7 11 9 7 7 7 9 50 47 40 40 47 42 49
19 20 21 22 19 11 14 19 15 16 19 19 18 15 16 18 18 20 25 24 18 11 11 20 19 21 12 18 29 35 48 51 58 33 9 6 4 5 6 8 5 10 16 8 12 19 32 14 46 52 42 38 34 40
19 18 15 10 14 17 18 20 19 19 18 20 20 17 19 23 18 23 28 28 26 22 10 27 66 38 8 12 46 44 47 49 44 17 9 8 12 11 11 5 27 15 11 8 10 20 26 43 67 58 45 43 40 34
12 12 14 16 18 18 15 16 15 16 16 17 17 15 15 13 15 18 7 5 2 16 10 7 19 61 26 9 24 39 41 55 52 24 16 22 37 29 8 8 9 33 57 68 48 38 61 66 68 64 64 55 42 30
13 13 13 14 15 14 15 12 9 10 14 16 15 14 15 13 22 17 6 9 16 10 10 14 15 13 35 24 24 18 8 32 40 30 21 30 28 36 13 36 31 46 56 72 77 57 74 82 61 63 48 39 35 29
6 7 9 10 11 12 10 9 9 11 12 13 13 14 13 14 22 30 16 25 29 19 10 7 10 20 12 12 10 13 14 11 20 21 14 13 18 21 19 43 67 68 70 78 78 83 79 81 74 50 39 35 33 40
2 0 4 7 9 10 12 13 9 9 10 9 9 11 13 19 13 1 5 9 26 22 7 9 7 7 11 9 14 22 11 4 10 6 12 20 11 14 16 43 69 69 70 78 64 58 51 62 59 46 37 14 28 39
5 4 7 9 12 14 14 14 14 13 10 9 7 7 5 4 4 8 6 9 17 17 15 11 11 8 21 23 9 8 6 6 4 10 5 8 23 71 72 78 85 67 64 54 41 43 42 56 53 41 30 12 33 57
6 9 10 13 14 15 16 17 15 13 12 7 6 6 2 8 7 5 6 7 9 7 14 17 34 14 14 7 6 10 5 5 6 10 11 6 7 8 22 54 88 89 85 85 80 81 77 64 64 38 28 24 35 48
9 12 12 10 7 4 11 12 13 17 7 8 4 8 8 4 5 5 5 6 8 8 10 10 15 23 11 16 11 12 7 4 11 7 6 6 6 23 37 61 52 50 76 78 78 75 69 58 46 31 42 15 43 21
10 15 12 10 9 8 10 11 15 14 16 7 5 4 2 4 2 9 8 6 5 9 9 9 7 12 15 21 13 5 8 10 4 4 7 3 24 47 52 65 52 31 28 50 64 66 62 49 46 38 52 57 61 39
12 12 7 10 10 11 9 8 14 25 15 8 6 4 8 8 10 10 9 9 19 16 36 42 12 7 13 9 6 8 10 5 6 6 5 8 36 51 58 52 44 44 42 42 43 48 39 46 39 39 65 68 71 63
10 5 10 12 7 2 4 8 20 29 10 7 8 8 12 23 20 20 31 32 30 44 39 18 12 12 5 6 6 6 7 8 5 7 6 28 33 43 62 52 49 47 43 27 34 34 34 34 38 36 42 60 66 62
3 3 7 8 8 10 10 12 14 17 6 8 12 8 20 10 19 17 21 39 39 29 23 8 5 6 6 5 4 9 7 2 3 6 25 35 45 52 58 52 44 42 32 26 34 35 39 47 43 45 37 42 43 58
6 6 2 3 2 4 7 8 9 10 9 9 14 26 39 42 39 52 48 45 28 12 6 4 5 6 1 6 7 7 7 5 19 37 40 41 44 50 62 57 45 40 15 21 34 47 47 31 34 33 48 63 54 53
2 6 7 8 8 8 8 9 7 9 12 22 13 33 28 35 44 45 50 43 19 18 10 9 6 3 6 7 7 5 12 30 44 42 50 47 37 57 60 58 46 37 7 32 35 37 46 51 45 47 53 76 51 58
9 10 9 8 9 5 5 8 11 9 20 22 32 42 42 46 47 43 46 34 11 13 11 7 7 6 7 9 17 41 44 49 44 53 55 44 26 43 48 57 40 26 14 41 37 32 46 48 48 55 74 54 56 56
11 7 4 4 5 4 6 7 11 12 11 10 25 32 32 39 49 46 28 16 13 10 11 9 11 12 10 35 42 57 55 48 47 41 48 41 24 38 47 50 39 19 22 51 55 49 48 49 61 83 66 43 56 59
2 4 8 6 7 10 9 7 10 12 16 13 30 33 30 34 30 29 20 16 13 9 6 14 24 30 29 55 58 52 50 46 43 42 42 43 30 38 38 44 36 23 25 25 45 48 56 59 62 76 84 56 49 56
7 7 4 5 5 6 11 13 13 17 13 20 24 10 14 9 9 9 19 13 10 12 12 18 45 42 36 47 57 46 48 51 45 43 35 31 32 33 32 39 41 36 41 26 33 45 48 49 63 66 57 60 46 57
5 4 1 4 6 7 11 10 9 8 5 8 13 10 6 7 7 16 8 7 9 16 45 58 54 47 41 36 38 36 35 34 37 35 27 24 25 21 16 24 41 47 39 32 27 32 42 55 55 62 43 43 64 64
8 5 2 4 8 9 12 7 8 10 9 5 5 7 6 7 11 6 5 7 23 53 59 62 56 60 59 42 36 29 25 26 33 26 17 16 17 18 20 23 34 42 40 34 24 34 49 57 68 69 57 64 72 73
2 4 4 5 6 7 5 6 6 5 5 5 5 6 5 10 5 5 6 15 50 64 76 70 66 59 51 41 12 16 19 22 25 21 7 4 5 9 15 13 20 33 30 29 31 40 44 46 47 49 71 63 72 69
5 9 12 8 5 6 4 5 4 5 5 4 6 9 9 4 8 8 8 42 56 72 75 75 70 63 45 12 2 15 19 19 28 20 9 6 4 6 9 14 20 22 22 18 20 27 39 52 58 66 60 66 70 70
5 4 8 12 8 7 10 15 14 7 6 5 5 4 6 9 8 9 44 56 61 59 63 68 73 67 44 24 12 14 13 23 35 25 21 15 10 5 5 13 22 22 20 13 11 7 32 44 56 61 63 66 61 61
10 8 7 9 12 13 7 6 4 4 6 11 5 11 7 10 6 23 39 60 56 59 53 64 73 65 49 30 24 21 27 37 35 25 16 8 4 2 12 20 21 25 26 23 14 13 27 44 56 56 63 64 67 60
8 9 7 9 7 1 7 6 13 15 18 16 5 5 6 6 33 43 62 52 60 61 58 71 74 75 68 47 39 39 37 33 28 20 6 7 13 15 20 21 20 15 18 23 18 22 34 37 48 55 56 56 55 59
9 22 8 8 7 5 3 12 21 19 19 19 10 10 6 14 52 67 56 57 61 72 62 57 66 73 71 68 56 36 27 24 21 18 16 17 17 17 15 9 7 10 14 25 28 33 37 39 46 51 58 63 59 59
22 16 6 12 7 10 21 28 27 23 20 20 20 19 14 10 26 67 70 54 57 53 59 60 55 61 66 72 68 53 49 31 28 23 17 19 19 18 16 15 18 24 28 32 33 34 39 44 46 48 51 48 49 59
17 13 10 7 5 13 10 7 9 20 22 33 38 26 15 11 24 41 72 67 58 58 56 59 45 45 57 52 50 49 51 55 43 36 26 25 20 17 19 28 31 34 31 28 31 30 32 35 42 46 50 52 54 49
9 9 13 9 10 8 6 7 8 5 5 6 15 30 24 15 14 38 58 73 57 55 48 48 46 52 48 45 45 47 46 44 44 42 32 38 30 28 29 37 55 55 53 51 49 47 41 40 35 36 38 37 43 47
Wind_Direction_500mb
225 239 250 238 235 250 253 256 259 264 276 277 281 298 308 312 310 304 238 247 253 250 277 278 272 220 194 219 176 327 344 339 333 20 340 307 294 281 316 287 287 226 230 223 160 196 254 152 29 269 267 311 315 328
229 237 224 231 228 240 241 246 259 275 273 270 276 287 293 299 305 299 259 247 279 271 268 279 272 257 271 270 257 249 244 305 279 7 350 331 321 314 272 290 297 292 216 235 202 231 271 318 267 277 289 279 293 310
219 227 207 223 235 234 230 247 269 270 270 269 273 278 295 298 291 295 300 307 301 300 297 280 308 245 255 253 231 206 224 220 231 267 233 240 255 7 287 272 313 325 331 286 359 328 298 310 318 322 303 281 288 290
198 206 216 220 224 220 251 255 260 265 266 272 277 267 283 295 290 283 285 294 303 292 272 282 292 259 230 243 246 240 257 256 268 265 260 216 220 220 261 280 235 240 328 309 279 296 313 318 329 325 315 293 298 297
202 208 206 211 241 243 245 251 256 260 263 267 266 265 273 289 292 290 288 285 268 244 273 287 300 300 243 223 291 263 248 241 239 221 210 229 224 259 260 274 260 219 225 221 252 295 298 303 313 315 304 304 289 303
183 206 217 230 238 247 249 255 263 274 277 275 278 283 283 285 280 304 311 296 259 200 262 284 296 297 323 331 272 285 249 230 220 203 209 229 237 214 248 254 252 257 252 251 263 278 304 302 306 311 301 289 276 271
209 222 226 228 234 246 257 255 266 289 295 289 271 260 269 275 262 252 251 190 201 353 324 301 288 285 314 324 313 307 313 218 215 217 213 225 220 218 238 253 259 268 277 282 286 292 298 296 290 303 292 297 268 252
188 214 229 242 249 246 243 254 279 283 282 285 266 256 262 269 264 271 296 248 237 282 276 272 275 308 315 305 323 1 333 249 219 221 209 201 222 212 247 257 259 262 268 272 275 278 278 288 297 286 273 299 253 224
118 315 283 271 257 250 257 261 272 281 289 286 263 263 262 246 250 320 302 273 216 207 237 235 259 269 318 343 325 308 256 263 251 218 219 205 206 222 230 242 254 255 256 262 269 280 278 297 293 267 270 311 195 183
52 358 317 297 281 266 262 250 256 286 266 262 259 243 231 191 242 280 237 196 199 212 228 244 227 261 298 296 281 301 246 235 243 240 221 217 237 240 246 248 252 250 253 266 265 280 288 297 300 286 247 265 213 164
1 341 329 323 302 267 251 254 261 248 235 230 217 236 258 265 286 216 222 208 207 256 224 235 219 222 245 186 235 243 258 237 251 254 175 247 270 243 308 276 258 251 250 254 261 269 275 282 289 279 219 237 154 167
331 337 328 326 335 293 266 261 230 222 202 190 207 282 275 226 204 251 218 245 211 240 220 210 246 220 262 231 201 240 227 201 255 223 184 238 257 310 339 336 328 271 253 253 260 263 270 271 274 254 184 122 199 167
334 331 322 313 309 296 285 242 229 203 185 198 230 233 217 171 193 218 220 232 241 225 231 218 254 252 235 218 222 242 239 231 237 238 232 177 337 340 337 318 322 332 290 263 261 261 262 263 249 234 189 143 171 216
333 335 335 325 309 289 278 257 198 176 173 193 211 265 211 206 226 208 211 218 244 255 289 282 245 258 215 217 220 232 237 287 261 247 263 354 332 317 322 320 318 318 316 290 246 243 245 237 230 204 194 187 188 223
347 16 6 16 63 62 101 152 163 168 189 218 207 235 224 232 250 258 266 264 271 293 282 266 235 227 223 251 221 285 258 232 246 13 338 326 336 341 340 321 321 325 321 275 218 218 214 202 191 185 179 186 186 195
344 111 45 66 58 78 111 149 162 181 244 230 230 258 258 261 278 275 269 296 308 271 259 267 263 267 221 243 262 237 274 329 266 232 304 313 323 311 321 328 332 339 318 234 209 197 180 175 183 171 170 145 165 178
62 166 57 15 292 245 194 200 201 225 235 238 242 243 256 273 270 281 295 288 277 207 226 228 263 248 209 237 235 203 234 236 309 317 317 320 323 335 341 343 347 352 341 199 189 201 189 186 205 200 182 176 190 178
257 288 294 281 297 298 258 214 243 242 246 243 244 263 264 270 276 290 298 304 253 223 199 222 220 258 233 250 253 262 286 309 317 314 320 329 335 345 337 343 343 353 16 172 180 213 192 184 178 172 153 160 161 167
314 301 287 273 278 286 240 223 225 258 247 260 265 271 277 285 287 288 295 298 271 244 286 283 239 226 223 240 287 286 296 302 302 309 321 330 333 339 342 346 347 6 110 170 176 184 183 171 161 151 149 165 160 163
305 324 292 288 291 263 260 241 226 256 263 274 284 283 285 285 297 300 292 250 266 236 204 210 217 232 225 271 288 284 283 299 301 300 309 332 333 333 328 347 6 53 129 167 172 170 171 169 160 168 169 152 159 166
277 236 288 287 297 244 265 270 248 252 277 263 283 294 289 283 278 275 267 285 280 239 254 255 276 277 267 291 294 293 281 282 295 294 301 316 314 330 330 3 53 104 108 157 180 181 173 168 162 172 185 183 170 162
219 321 274 244 257 249 263 241 252 278 275 265 288 252 263 281 298 278 289 235 233 256 272 323 323 314 294 281 282 277 270 276 272 277 286 298 311 328 5 15 37 77 145 174 171 169 171 176 176 172 175 183 180 173
242 291 238 245 278 252 264 264 253 258 269 283 311 310 303 285 273 304 270 280 296 301 308 319 327 327 315 303 281 266 264 261 252 257 278 302 325 12 25 25 39 61 108 121 142 156 145 137 140 157 183 190 174 164
288 203 232 243 236 273 304 275 282 293 294 312 270 264 275 288 296 271 267 283 301 319 325 330 330 319 317 301 288 262 248 239 244 252 272 313 352 20 23 34 46 54 97 115 130 142 149 161 167 173 186 171 166 163
196 197 231 268 259 267 273 288 258 267 271 277 287 293 298 315 323 315 328 316 327 333 340 340 341 336 317 319 280 229 214 222 227 226 217 258 314 360 28 51 62 64 81 98 122 143 146 153 157 159 161 164 167 166
241 196 195 215 234 210 253 273 269 289 280 284 269 293 314 304 355 340 328 327 334 337 341 343 341 344 8 8 46 170 176 198 186 170 134 192 249 15 46 94 117 101 96 95 102 146 159 157 161 160 160 172 171 170
282 224 238 231 237 252 271 257 262 269 274 271 277 321 13 9 352 324 329 352 339 359 12 9 9 7 29 43 114 124 139 155 152 133 108 110 142 127 75 124 133 134 130 124 110 142 173 166 167 168 172 175 179 176
247 239 231 201 208 230 266 264 255 270 293 335 44 27 34 16 340 321 325 357 12 28 22 22 31 33 44 63 84 117 130 150 158 147 141 120 48 86 136 141 137 142 147 139 148 151 178 174 172 178 181 178 180 181
278 292 266 261 198 162 304 344 4 9 1 15 57 53 70 24 11 3 11 15 27 30 30 23 35 42 52 76 73 91 109 137 154 157 144 99 114 114 121 134 131 132 161 165 176 183 185 177 182 184 186 183 174 180
321 337 294 2 52 123 267 46 63 59 58 57 85 115 149 9 27 30 26 28 24 26 34 30 33 40 39 52 79 85 91 113 127 129 136 136 143 145 138 150 155 155 150 167 157 153 169 174 176 177 177 174 174 176
344 348 14 45 65 95 103 96 83 71 79 74 62 70 62 19 23 27 31 29 28 29 31 44 38 45 47 47 58 70 72 86 93 95 107 115 127 134 147 149 144 145 152 158 152 158 167 169 173 173 169 160 168 171
348 9 6 27 82 133 98 79 89 89 62 52 43 44 46 29 18 18 26 25 27 29 30 38 53 39 60 62 60 56 56 62 79 77 80 133 120 132 148 150 148 145 145 146 151 157 162 160 155 155 154 155 157 155
323 18 27 20 12 7 15 314 184 125 66 52 39 32 35 29 12 359 12 16 22 30 30 35 46 46 59 64 61 60 60 59 53 57 77 90 108 128 133 125 124 121 117 116 121 128 132 140 134 138 140 147 160 160
Wind_Speed_850mb
47 44 38 33 37 30 26 25 23 23 22 18 14 13 14 13 12 7 9 11 9 11 39 43 28 15 11 8 6 12 17 5 9 7 3 6 4 6 6 8 8 5 4 7 7 8 13 7 8 4 10 21 28 33
45 32 31 28 22 23 23 20 21 22 20 18 15 14 14 15 13 14 9 15 21 21 31 43 47 44 60 66 43 11 8 6 8 3 3 6 6 7 2 7 3 5 8 6 10 9 6 21 14 30 40 47 41 40
26 24 23 21 23 26 20 15 23 19 17 18 17 14 14 15 14 17 22 16 20 21 44 34 14 7 16 16 31 22 17 17 12 20 9 6 9 3 6 6 7 11 9 7 7 7 9 50 47 40 40 47 42 49
19 20 21 22 19 11 14 19 15 16 19 19 18 15 16 18 18 20 25 24 18 11 11 20 19 21 12 18 29 35 48 51 58 33 9 6 4 5 6 8 5 10 16 8 12 19 32 14 46 52 42 38 34 40
19 18 15 10 14 17 18 20 19 19 18 20 20 17 19 23 18 23 28 28 26 22 10 27 66 38 8 12 46 44 47 49 44 17 9 8 12 11 11 5 27 15 11 8 10 20 26 43 67 58 45 43 40 34
12 12 14 16 18 18 15 16 15 16 16 17 17 15 15 13 15 18 7 5 2 16 10 7 19 61 26 9 24 39 41 55 52 24 16 22 37 29 8 8 9 33 57 68 48 38 61 66 68 64 64 55 42 30
13 13 13 14 15 14 15 12 9 10 14 16 15 14 15 13 22 17 6 9 16 10 10 14 15 13 35 24 24 18 8 32 40 30 21 30 28 36 13 36 31 46 56 72 77 57 74 82 61 63 48 39 35 29
6 7 9 10 11 12 10 9 9 11 12 13 13 14 13 14 22 30 16 25 29 19 10 7 10 20 12 12 10 13 14 11 20 21 14 13 18 21 19 43 67 68 70 78 78 83 79 81 74 50 39 35 33 40
2 0 4 7 9 10 12 13 9 9 10 9 9 11 13 19 13 1 5 9 26 22 7 9 7 7 11 9 14 22 11 4 10 6 12 20 11 14 16 43 69 69 70 78 64 58 51 62 59 46 37 14 28 39
5 4 7 9 12 14 14 14 14 13 10 9 7 7 5 4 4 8 6 9 17 17 15 11 11 8 21 23 9 8 6 6 4 10 5 8 23 71 72 78 85 67 64 54 41 43 42 56 53 41 30 12 33 57
6 9 10 13 14 15 16 17 15 13 12 7 6 6 2 8 7 5 6 7 9 7 14 17 34 14 14 7 6 10 5 5 6 10 11 6 7 8 22 54 88 89 85 85 80 81 77 64 64 38 28 24 35 48
9 12 12 10 7 4 11 12 13 17 7 8 4 8 8 4 5 5 5 6 8 8 10 10 15 23 11 16 11 12 7 4 11 7 6 6 6 23 37 61 52 50 76 78 78 75 69 58 46 31 42 15 43 21
10 15 12 10 9 8 10 11 15 14 16 7 5 4 2 4 2 9 8 6 5 9 9 9 7 12 15 21 13 5 8 10 4 4 7 3 24 47 52 65 52 31 28 50 64 66 62 49 46 38 52 57 61 39
12 12 7 10 10 11 9 8 14 25 15 8 6 4 8 8 10 10 9 9 19 16 36 42 12 7 13 9 6 8 10 5 6 6 5 8 36 51 58 52 44 44 42 42 43 48 39 46 39 39 65 68 71 63
10 5 10 12 7 2 4 8 20 29 10 7 8 8 12 23 20 20 31 32 30 44 39 18 12 12 5 6 6 6 7 8 5 7 6 28 33 43 62 52 49 47 43 27 34 34 34 34 38 36 42 60 66 62
3 3 7 8 8 10 10 12 14 17 6 8 12 8 20 10 19 17 21 39 39 29 23 8 5 6 6 5 4 9 7 2 3 6 25 35 45 52 58 52 44 42 32 26 34 35 39 47 43 45 37 42 43 58
6 6 2 3 2 4 7 8 9 10 9 9 14 26 39 42 39 52 48 45 28 12 6 4 5 6 1 6 7 7 7 5 19 37 40 41 44 50 62 57 45 40 15 21 34 47 47 31 34 33 48 63 54 53
2 6 7 8 8 8 8 9 7 9 12 22 13 33 28 35 44 45 50 43 19 18 10 9 6 3 6 7 7 5 12 30 44 42 50 47 37 57 60 58 46 37 7 32 35 37 46 51 45 47 53 76 51 58
9 10 9 8 9 5 5 8 11 9 20 22 32 42 42 46 47 43 46 34 11 13 11 7 7 6 7 9 17 41 44 49 44 53 55 44 26 43 48 57 40 26 14 41 37 32 46 48 48 55 74 54 56 56
11 7 4 4 5 4 6 7 11 12 11 10 25 32 32 39 49 46 28 16 13 10 11 9 11 12 10 35 42 57 55 48 47 41 48 41 24 38 47 50 39 19 22 51 55 49 48 49 61 83 66 43 56 59
2 4 8 6 7 10 9 7 10 12 16 13 30 33 30 34 30 29 20 16 13 9 6 14 24 30 29 55 58 52 50 46 43 42 42 43 30 38 38 44 36 23 25 25 45 48 56 59 62 76 84 56 49 56
7 7 4 5 5 6 11 13 13 17 13 20 24 10 14 9 9 9 19 13 10 12 12 18 45 42 36 47 57 46 48 51 45 43 35 31 32 33 32 39 41 36 41 26 33 45 48 49 63 66 57 60 46 57
5 4 1 4 6 7 11 10 9 8 5 8 13 10 6 7 7 16 8 7 9 16 45 58 54 47 41 36 38 36 35 34 37 35 27 24 25 21 16 24 41 47 39 32 27 32 42 55 55 62 43 43 64 64
8 5 2 4 8 9 12 7 8 10 9 5 5 7 6 7 11 6 5 7 23 53 59 62 56 60 59 42 36 29 25 26 33 26 17 16 17 18 20 23 34 42 40 34 24 34 49 57 68 69 57 64 72 73
2 4 4 5 6 7 5 6 6 5 5 5 5 6 5 10 5 5 6 15 50 64 76 70 66 59 51 41 12 16 19 22 25 21 7 4 5 9 15 13 20 33 30 29 31 40 44 46 47 49 71 63 72 69
5 9 12 8 5 6 4 5 4 5 5 4 6 9 9 4 8 8 8 42 56 72 75 75 70 63 45 12 2 15 19 19 28 20 9 6 4 6 9 14 20 22 22 18 20 27 39 52 58 66 60 66 70 70
5 4 8 12 8 7 10 15 14 7 6 5 5 4 6 9 8 9 44 56 61 59 63 68 73 67 44 24 12 14 13 23 35 25 21 15 10 5 5 13 22 22 20 13 11 7 32 44 56 61 63 66 61 61
10 8 7 9 12 13 7 6 4 4 6 11 5 11 7 10 6 23 39 60 56 59 53 64 73 65 49 30 24 21 27 37 35 25 16 8 4 2 12 20 21 25 26 23 14 13 27 44 56 56 63 64 67 60
8 9 7 9 7 1 7 6 13 15 18 16 5 5 6 6 33 43 62 52 60 61 58 71 74 75 68 47 39 39 37 33 28 20 6 7 13 15 20 21 20 15 18 23 18 22 34 37 48 55 56 56 55 59
9 22 8 8 7 5 3 12 21 19 19 19 10 10 6 14 52 67 56 57 61 72 62 57 66 73 71 68 56 36 27 24 21 18 16 17 17 17 15 9 7 10 14 25 28 33 37 39 46 51 58 63 59 59
22 16 6 12 7 10 21 28 27 23 20 20 20 19 14 10 26 67 70 54 57 53 59 60 55 61 66 72 68 53 49 31 28 23 17 19 19 18 16 15 18 24 28 32 33 34 39 44 46 48 51 48 49 59
17 13 10 7 5 13 10 7 9 20 22 33 38 26 15 11 24 41 72 67 58 58 56 59 45 45 57 52 50 49 51 55 43 36 26 25 20 17 19 28 31 34 31 28 31 30 32 35 42 46 50 52 54 49
9 9 13 9 10 8 6 7 8 5 5 6 15 30 24 15 14 38 58 73 57 55 48 48 46 52 48 45 45 47 46 44 44 42 32 38 30 28 29 37 55 55 53 51 49 47 41 40 35 36 38 37 43 47
Wind_Direction_850mb
225 239 250 238 235 250 253 256 259 264 276 277 281 298 308 312 310 304 238 247 253 250 277 278 272 220 194 219 176 327 344 339 333 20 340 307 294 281 316 287 287 226 230 223 160 196 254 152 29 269 267 311 315 328
229 237 224 231 228 240 241 246 259 275 273 270 276 287 293 299 305 299 259 247 279 271 268 279 272 257 271 270 257 249 244 305 279 7 350 331 321 314 272 290 297 292 216 235 202 231 271 318 267 277 289 279 293 310
219 227 207 223 235 234 230 247 269 270 270 269 273 278 295 298 291 295 300 307 301 300 297 280 308 245 255 253 231 206 224 220 231 267 233 240 255 7 287 272 313 325 331 286 359 328 298 310 318 322 303 281 288 290
198 206 216 220 224 220 251 255 260 265 266 272 277 267 283 295 290 283 285 294 303 292 272 282 292 259 230 243 246 240 257 256 268 265 260 216 220 220 261 280 235 240 328 309 279 296 313 318 329 325 315 293 298 297
202 208 206 211 241 243 245 251 256 260 263 267 266 265 273 289 292 290 288 285 268 244 273 287 300 300 243 223 291 263 248 241 239 221 210 229 224 259 260 274 260 219 225 221 252 295 298 303 313 315 304 304 289 303
183 206 217 230 238 247 249 255 263 274 277 275 278 283 283 285 280 304 311 296 259 200 262 284 296 297 323 331 272 285 249 230 220 203 209 229 237 214 248 254 252 257 252 251 263 278 304 302 306 311 301 289 276 271
209 222 226 228 234 246 257 255 266 289 295 289 271 260 269 275 262 252 251 190 201 353 324 301 288 285 314 324 313 307 313 218 215 217 213 225 220 218 238 253 259 268 277 282 286 292 298 296 290 303 292 297 268 252
188 214 229 242 249 246 243 254 279 283 282 285 266 256 262 269 264 271 296 248 237 282 276 272 275 308 315 305 323 1 333 249 219 221 209 201 222 212 247 257 259 262 268 272 275 278 278 288 297 286 273 299 253 224
118 315 283 271 257 250 257 261 272 281 289 286 263 263 262 246 250 320 302 273 216 207 237 235 259 269 318 343 325 308 256 263 251 218 219 205 206 222 230 242 254 255 256 262 269 280 278 297 293 267 270 311 195 183
52 358 317 297 281 266 262 250 256 286 266 262 259 243 231 191 242 280 237 196 199 212 228 244 227 261 298 296 281 301 246 235 243 240 221 217 237 240 246 248 252 250 253 266 265 280 288 297 300 286 247 265 213 164
1 341 329 323 302 267 251 254 261 248 235 230 217 236 258 265 286 216 222 208 207 256 224 235 219 222 245 186 235 243 258 237 251 254 175 247 270 243 308 276 258 251 250 254 261 269 275 282 289 279 219 237 154 167
331 337 328 326 335 293 266 261 230 222 202 190 207 282 275 226 204 251 218 245 211 240 220 210 246 220 262 231 201 240 227 201 255 223 184 238 257 310 339 336 328 271 253 253 260 263 270 271 274 254 184 122 199 167
334 331 322 313 309 296 285 242 229 203 185 198 230 233 217 171 193 218 220 232 241 225 231 218 254 252 235 218 222 242 239 231 237 238 232 177 337 340 337 318 322 332 290 263 261 261 262 263 249 234 189 143 171 216
333 335 335 325 309 289 278 257 198 176 173 193 211 265 211 206 226 208 211 218 244 255 289 282 245 258 215 217 220 232 237 287 261 247 263 354 332 317 322 320 318 318 316 290 246 243 245 237 230 204 194 187 188 223
347 16 6 16 63 62 101 152 163 168 189 218 207 235 224 232 250 258 266 264 271 293 282 266 235 227 223 251 221 285 258 232 246 13 338 326 336 341 340 321 321 325 321 275 218 218 214 202 191 185 179 186 186 195
344 111 45 66 58 78 111 149 162 181 244 230 230 258 258 261 278 275 269 296 308 271 259 267 263 267 221 243 262 237 274 329 266 232 304 313 323 311 321 328 332 339 318 234 209 197 180 175 183 171 170 145 165 178
62 166 57 15 292 245 194 200 201 225 235 238 242 243 256 273 270 281 295 288 277 207 226 228 263 248 209 237 235 203 234 236 309 317 317 320 323 335 341 343 347 352 341 199 189 201 189 186 205 200 182 176 190 178
257 288 294 281 297 298 258 214 243 242 246 243 244 263 264 270 276 290 298 304 253 223 199 222 220 258 233 250 253 262 286 309 317 314 320 329 335 345 337 343 343 353 16 172 180 213 192 184 178 172 153 160 161 167
314 301 287 273 278 286 240 223 225 258 247 260 265 271 277 285 287 288 295 298 271 244 286 283 239 226 223 240 287 286 296 302 302 309 321 330 333 339 342 346 347 6 110 170 176 184 183 171 161 151 149 165 160 163
305 324 292 288 291 263 260 241 226 256 263 274 284 283 285 285 297 300 292 250 266 236 204 210 217 232 225 271 288 284 283 299 301 300 309 332 333 333 328 347 6 53 129 167 172 170 171 169 160 168 169 152 159 166
277 236 288 287 297 244 265 270 248 252 277 263 283 294 289 283 278 275 267 285 280 239 254 255 276 277 267 291 294 293 281 282 295 294 301 316 314 330 330 3 53 104 108 157 180 181 173 168 162 172 185 183 170 162
219 321 274 244 257 249 263 241 252 278 275 265 288 252 263 281 298 278 289 235 233 256 272 323 323 314 294 281 282 277 270 276 272 277 286 298 311 328 5 15 37 77 145 174 171 169 171 176 176 172 175 183 180 173
242 291 238 245 278 252 264 264 253 258 269 283 311 310 303 285 273 304 270 280 296 301 308 319 327 327 315 303 281 266 264 261 252 257 278 302 325 12 25 25 39 61 108 121 142 156 145 137 140 157 183 190 174 164
288 203 232 243 236 273 304 275 282 293 294 312 270 264 275 288 296 271 267 283 301 319 325 330 330 319 317 301 288 262 248 239 244 252 272 313 352 20 23 34 46 54 97 115 130 142 149 161 167 173 186 171 166 163
196 197 231 268 259 267 273 288 258 267 271 277 287 293 298 315 323 315 328 316 327 333 340 340 341 336 317 319 280 229 214 222 227 226 217 258 314 360 28 51 62 64 81 98 122 143 146 153 157 159 161 164 167 166
241 196 195 215 234 210 253 273 269 289 280 284 269 293 314 304 355 340 328 327 334 337 341 343 341 344 8 8 46 170 176 198 186 170 134 192 249 15 46 94 117 101 96 95 102 146 159 157 161 160 160 172 171 170
282 224 238 231 237 252 271 257 262 269 274 271 277 321 13 9 352 324 329 352 339 359 12 9 9 7 29 43 114 124 139 155 152 133 108 110 142 127 75 124 133 134 130 124 110 142 173 166 167 168 172 175 179 176
247 239 231 201 208 230 266 264 255 270 293 335 44 27 34 16 340 321 325 357 12 28 22 22 31 33 44 63 84 117 130 150 158 147 141 120 48 86 136 141 137 142 147 139 148 151 178 174 172 178 181 178 180 181
278 292 266 261 198 162 304 344 4 9 1 15 57 53 70 24 11 3 11 15 27 30 30 23 35 42 52 76 73 91 109 137 154 157 144 99 114 114 121 134 131 132 161 165 176 183 185 177 182 184 186 183 174 180
321 337 294 2 52 123 267 46 63 59 58 57 85 115 149 9 27 30 26 28 24 26 34 30 33 40 39 52 79 85 91 113 127 129 136 136 143 145 138 150 155 155 150 167 157 153 169 174 176 177 177 174 174 176
344 348 14 45 65 95 103 96 83 71 79 74 62 70 62 19 23 27 31 29 28 29 31 44 38 45 47 47 58 70 72 86 93 95 107 115 127 134 147 149 144 145 152 158 152 158 167 169 173 173 169 160 168 171
348 9 6 27 82 133 98 79 89 89 62 52 43 44 46 29 18 18 26 25 27 29 30 38 53 39 60 62 60 56 56 62 79 77 80 133 120 132 148 150 148 145 145 146 151 157 162 160 155 155 154 155 157 155
323 18 27 20 12 7 15 314 184 125 66 52 39 32 35 29 12 359 12 16 22 30 30 35 46 46 59 64 61 60 60 59 53 57 77 90 108 128 133 125 124 121 117 116 121 128 132 140 134 138 140 147 160 160